SCP
0 0 0 0 0 0 1 1 0 0 0 0 0 0 0 0 0 0 0 0 1 1 1 1 1 1 1 1 1 1 1 1 1 1 1 0 0 0 0 0 0 0 0
0 0 0 0 0 0 0 0 0 0 0 0 0 0 0 0 0 0 0 0 1 1 1 1 1 1 1 1 1 1 1 1 1 0 0 0 0 0 0 0 0 0 0
0 0 0 0 0 0 0 0 0 0 0 0 0 0 0 0 0 0 0 0 1 1 1 1 1 1 1 0 0 0 0 0 0 0 0 0 0 0 0 0 0 0 0
0 0 0 0 0 0 0 0 0 0 0 0 0 0 0 0 0 0 0 0 0 1 1 1 1 1 1 1 0 0 0 0 0 0 0 0 0 0 0 0 0 0 0
0 0 0 0 0 0 0 0 0 0 0 0 0 0 0 0 0 0 0 0 0 1 1 1 1 1 1 1 0 0 0 0 0 0 0 0 0 0 0 0 0 0 0
0 0 0 0 0 0 0 0 0 0 0 0 0 0 0 0 0 0 0 0 0 0 0 0 1 1 1 1 1 1 1 1 1 0 0 0 0 0 0 0 0 0 0
0 0 0 0 0 0 0 0 0 0 0 0 0 0 0 0 0 0 0 0 0 0 0 0 0 0 0 0 1 1 1 1 1 1 0 0 0 0 0 0 0 1 1
0 0 0 0 0 0 0 0 0 0 0 0 0 0 0 0 0 0 0 0 0 0 0 0 0 0 0 0 0 0 1 1 1 1 1 0 0 0 0 0 0 0 0
0 0 0 0 0 0 0 0 0 0 0 0 0 0 0 0 0 0 0 0 0 0 0 0 0 0 0 0 0 0 0 1 1 1 1 1 0 0 0 0 0 0 0
0 0 0 0 0 0 0 0 0 0 0 0 0 0 0 0 0 0 0 0 0 0 0 0 0 0 0 0 0 0 0 0 1 1 1 1 1 0 0 0 0 0 0
0 0 0 0 0 0 0 0 0 0 0 0 0 0 0 0 0 0 0 0 0 0 0 0 0 0 0 0 0 0 0 0 0 1 1 1 1 1 0 0 0 0 0
0 0 0 0 0 0 0 0 0 0 0 0 0 0 0 0 0 0 0 0 0 0 0 0 0 0 0 0 0 0 0 0 0 0 0 0 1 1 1 0 0 0 0
0 0 0 0 0 0 0 0 0 0 0 0 0 0 0 0 0 0 0 0 0 0 0 0 0 0 0 0 0 0 0 0 0 0 0 0 0 0 0 0 0 0 0
0 0 0 0 0 0 0 0 0 0 0 0 0 0 0 0 0 0 0 0 0 0 0 0 0 0 0 0 0 0 0 0 0 0 0 0 0 0 0 0 0 0 0
0 0 0 0 0 0 0 0 0 0 0 0 0 0 0 0 0 0 0 0 0 0 0 0 0 0 0 0 0 0 0 0 0 0 0 0 0 0 0 0 0 0 0
0 0 0 0 0 0 0 0 0 0 0 0 0 0 0 0 0 0 0 0 0 0 0 0 0 0 0 0 0 0 0 0 0 0 0 0 0 0 0 0 0 0 0
0 0 0 0 0 0 0 0 0 0 0 0 0 0 0 0 0 0 0 0 0 0 0 0 0 0 0 0 0 0 0 0 0 0 0 0 0 0 0 0 0 0 0
0 0 0 0 0 0 0 0 0 0 0 0 0 0 0 0 0 0 0 0 0 0 0 0 0 0 0 0 0 0 0 0 0 0 0 0 0 0 0 0 0 0 0
0 0 0 0 0 0 0 0 0 0 0 0 0 0 0 0 0 0 0 0 0 0 0 0 0 0 0 0 0 0 0 0 0 0 0 0 0 0 0 0 0 0 0
0 0 0 0 0 0 0 0 0 0 0 0 0 0 0 0 0 0 0 0 0 0 0 0 0 0 0 0 0 0 0 0 0 0 0 0 0 0 0 0 0 0 0
0 0 0 0 0 0 0 0 0 0 0 0 0 0 0 0 0 0 0 0 0 0 0 0 0 0 0 0 0 0 0 0 0 0 0 0 0 0 0 0 0 0 0
0 0 0 0 0 0 0 0 0 0 0 0 0 0 0 0 0 0 0 0 0 0 0 0 0 0 0 0 0 0 0 0 0 0 0 0 0 0 0 0 0 0 0
0 0 0 0 0 0 0 0 0 0 0 0 0 0 0 0 0 0 0 0 0 0 0 0 0 0 0 0 0 0 0 0 0 0 0 0 0 0 0 0 0 0 0
0 0 0 0 0 0 0 0 0 0 0 0 0 0 0 0 0 0 0 0 0 0 0 0 0 0 0 0 0 0 0 0 0 0 0 0 0 0 0 0 0 0 0
0 0 0 0 0 0 0 0 0 0 0 0 0 0 0 0 0 0 0 0 0 0 0 0 0 0 0 0 0 0 0 0 0 0 0 0 0 0 0 0 0 0 0
0 0 0 0 0 0 0 0 0 0 0 0 0 0 0 0 0 0 0 0 0 0 0 0 0 0 0 0 0 0 0 0 0 0 0 0 0 0 0 0 0 0 0
Wind_Speed
2 1 1 1 1 1 1 1 2 1 1 1 1 2 2 2 2 2 1 3 4 3 3 3 2 3 3 3 3 3 3 2 2 2 2 2 2 3 3 3 3 4 5
1 1 1 1 1 1 1 1 2 2 1 1 1 1 2 2 2 2 1 1 3 3 3 2 2 2 2 3 3 3 2 1 1 0 1 2 2 3 4 4 4 5 6
2 2 1 1 1 1 2 1 1 1 2 2 1 1 1 2 2 2 2 1 1 1 2 2 2 2 2 2 2 2 2 1 1 1 2 2 3 4 4 5 4 4 5
2 2 2 1 1 1 1 1 1 1 1 1 1 0 0 1 2 2 1 1 1 0 0 2 2 2 1 1 1 1 0 0 1 2 3 3 4 5 5 6 5 5 6
2 1 1 1 1 1 1 1 1 1 1 1 0 1 1 0 1 1 1 1 1 1 0 1 1 1 0 1 1 1 2 2 2 3 4 4 4 5 6 6 6 6 6
1 1 1 1 1 1 1 1 1 1 1 1 1 1 0 0 0 1 1 1 1 1 1 1 0 1 1 2 2 3 3 3 3 4 4 5 5 5 6 6 6 7 7
1 1 1 1 1 1 1 0 1 2 1 1 2 1 2 1 0 0 0 0 1 1 1 1 1 0 1 2 3 4 4 5 5 5 5 5 5 5 6 6 6 7 8
1 1 1 0 0 1 1 1 1 1 1 1 1 2 0 2 2 1 1 1 1 0 0 0 1 0 0 0 2 4 5 6 6 6 6 6 7 7 7 7 7 7 8
1 1 1 1 0 1 1 1 1 1 1 0 1 2 3 2 1 1 1 1 1 1 1 1 1 1 1 1 1 3 4 6 7 7 7 7 8 8 7 7 8 8 9
1 0 0 1 1 1 1 1 1 1 2 1 0 0 1 2 2 1 2 1 1 1 1 1 1 1 1 1 2 3 4 5 6 8 8 9 9 8 8 8 8 9 10
1 1 0 1 1 1 1 1 1 1 2 2 1 0 0 0 0 2 2 2 1 1 1 2 1 1 1 1 1 3 4 5 7 8 9 9 9 9 9 9 9 10 10
1 1 1 1 1 1 2 2 2 2 2 2 2 1 1 1 1 1 2 2 2 2 2 1 1 1 1 1 2 4 4 6 7 7 8 8 9 10 10 9 10 10 11
1 2 1 1 2 2 2 2 2 2 2 2 3 2 2 2 1 1 2 1 1 1 1 1 1 1 1 1 2 4 4 6 6 7 7 8 8 9 9 10 10 10 11
2 2 2 2 2 2 2 2 2 2 2 2 2 2 2 2 1 1 2 2 1 1 2 2 1 1 1 1 3 4 3 6 6 7 7 8 8 8 8 9 10 10 10
2 2 2 2 2 2 2 2 2 2 2 2 3 3 2 2 2 2 2 2 2 2 3 3 2 2 2 1 3 2 3 6 7 7 7 7 7 8 8 8 8 8 9
2 1 2 2 2 2 2 2 2 2 2 3 2 3 3 2 2 2 2 2 2 3 3 2 2 2 2 3 4 2 3 7 7 8 8 7 7 8 8 7 8 8 9
2 2 2 2 2 2 2 2 2 2 3 3 3 3 3 3 2 2 2 2 2 2 4 3 2 2 2 2 3 2 2 3 4 7 8 8 7 8 8 7 8 8 9
2 2 2 2 2 3 2 3 3 3 3 4 3 3 4 2 3 2 2 3 3 3 3 4 2 1 2 2 2 3 3 3 3 6 7 7 7 7 8 8 8 8 9
2 2 2 2 3 3 3 3 3 3 3 4 4 4 4 3 3 3 3 3 2 2 2 2 3 2 2 2 2 3 3 3 3 5 6 6 7 8 8 8 8 9 9
2 2 2 2 3 3 3 3 3 3 3 3 3 3 4 4 4 4 3 3 2 2 1 2 2 2 2 1 1 2 3 2 3 3 4 5 7 8 8 9 9 9 9
2 2 2 2 2 2 2 2 3 3 3 3 2 3 3 4 5 4 3 3 3 2 2 2 2 2 2 1 2 2 3 3 3 2 2 3 3 3 4 7 8 9 9
1 1 1 1 2 2 3 3 3 3 3 3 3 3 3 4 4 5 5 4 4 3 3 3 3 3 4 3 2 2 2 3 3 2 2 4 2 3 3 3 7 9 9
1 1 1 1 2 3 4 3 3 2 2 3 3 3 2 2 3 2 3 4 4 5 5 4 4 5 4 3 3 3 3 3 4 3 2 4 2 4 4 5 9 10 9
1 1 1 1 2 3 4 4 3 2 1 2 2 3 3 3 3 3 3 3 3 3 4 4 4 5 4 4 3 3 4 3 3 3 2 3 3 3 4 4 8 9 9
1 1 1 1 2 3 5 4 3 1 1 2 2 2 3 3 5 4 3 3 2 3 3 4 4 4 4 5 3 1 1 2 3 3 1 2 2 4 4 4 5 7 8
1 1 1 1 2 3 4 4 3 1 1 2 2 2 4 4 5 4 3 3 3 3 2 1 1 2 2 3 3 2 2 2 2 3 2 1 2 2 4 3 2 3 4
Wind_Direction
69 59 52 56 49 49 84 119 115 106 94 91 108 124 130 135 130 124 118 117 122 120 125 127 130 140 141 135 129 118 110 101 98 80 52 34 14 360 344 343 340 338 338
85 73 59 51 51 52 33 148 140 139 143 124 98 127 140 137 124 128 118 115 114 123 133 140 139 134 137 136 134 128 113 90 62 32 5 347 342 335 332 331 332 331 332
77 83 72 48 19 47 50 45 101 124 126 114 97 110 137 142 129 132 126 121 137 115 126 145 137 134 131 132 133 127 121 80 8 343 330 334 335 333 329 327 327 330 330
69 84 81 52 20 46 74 78 54 109 121 113 124 102 79 134 139 148 132 128 132 125 180 131 138 142 145 139 138 167 181 273 309 312 312 313 317 317 318 317 318 322 321
73 90 91 62 42 55 55 70 74 124 126 104 130 111 59 93 161 143 141 146 150 141 141 90 84 93 169 227 255 273 265 268 282 298 306 302 305 310 311 312 312 313 315
64 92 87 64 71 73 54 52 79 72 113 136 125 83 43 288 166 154 177 173 181 174 151 132 82 348 344 322 299 290 286 282 284 288 295 297 299 305 310 310 313 316 316
50 86 76 59 75 103 112 93 115 97 62 87 94 53 355 346 348 260 190 157 184 192 158 145 133 110 312 328 314 298 289 288 288 289 291 292 295 297 298 303 311 316 319
41 70 91 101 109 112 93 98 105 117 83 92 127 127 338 331 314 293 257 206 221 196 183 155 145 171 257 294 308 308 296 292 290 290 290 291 293 291 294 299 303 306 311
50 72 121 136 124 135 166 181 147 141 159 178 123 143 157 211 275 300 267 239 228 215 226 214 203 211 216 224 274 294 303 295 294 292 290 289 287 288 291 297 299 302 305
16 42 145 151 155 162 178 218 171 169 162 190 237 272 157 151 165 284 313 299 267 240 238 243 230 237 232 229 276 294 307 306 299 295 294 291 289 289 292 294 297 300 301
315 323 250 188 191 203 207 201 205 196 185 186 186 180 158 72 140 169 240 289 310 278 259 245 231 235 240 239 259 284 300 302 300 300 298 294 293 292 293 295 298 298 299
290 303 288 242 226 221 222 215 207 208 209 197 191 185 173 172 189 179 214 243 256 275 281 264 238 240 247 247 269 289 296 296 296 298 301 300 298 296 294 294 295 296 296
259 258 259 248 243 237 230 222 209 215 217 210 205 210 212 221 199 187 194 233 267 285 292 285 253 251 278 272 271 295 293 293 293 296 298 300 301 302 302 298 295 294 295
250 241 238 240 244 240 233 222 220 220 213 218 228 222 220 224 218 216 196 186 247 278 268 259 271 249 264 269 285 301 287 296 294 292 292 294 297 299 301 301 297 297 297
268 252 244 238 237 237 234 220 218 223 213 218 228 229 229 231 219 229 222 194 192 238 257 242 251 262 273 273 286 280 279 293 298 294 293 293 292 293 295 297 295 299 302
259 250 260 255 248 245 241 232 229 225 217 227 221 226 232 234 228 225 227 226 211 214 247 245 240 269 276 286 294 286 277 303 299 296 293 291 292 292 293 295 298 299 301
249 235 237 244 248 248 242 234 238 227 225 233 232 226 232 228 226 230 225 225 229 213 243 269 252 267 258 270 294 286 282 278 286 296 296 293 290 294 293 294 297 297 298
255 246 239 237 248 251 240 234 243 239 229 233 235 229 234 232 230 232 226 224 228 224 224 259 272 278 274 270 280 284 297 295 284 294 298 297 298 299 299 296 298 298 298
265 270 260 249 250 248 238 236 235 236 233 236 235 230 230 222 234 233 227 226 228 238 222 237 261 273 276 282 296 299 300 297 297 296 298 300 303 305 304 300 299 298 298
262 262 263 260 259 253 238 233 234 227 231 236 234 230 228 220 225 226 224 218 214 219 220 237 263 279 279 285 283 297 308 302 297 301 301 303 306 306 303 301 299 297 297
277 265 270 277 276 264 245 237 232 223 222 233 241 240 238 237 240 233 229 212 202 205 213 235 258 272 271 271 266 280 288 299 290 278 287 294 300 295 296 298 298 298 296
289 293 282 281 292 292 277 256 242 224 220 228 240 245 245 247 254 258 256 246 229 215 217 226 249 251 255 256 256 267 279 296 291 274 286 289 285 282 282 280 299 304 303
293 296 294 294 294 296 294 282 256 221 216 229 236 238 250 251 260 238 254 267 267 265 252 235 235 242 246 243 237 249 253 270 270 267 277 281 276 277 283 294 300 300 300
277 275 291 295 296 304 308 295 274 216 211 228 232 233 236 241 242 227 221 238 245 252 255 245 235 243 245 239 229 241 251 271 277 274 253 271 280 278 291 288 295 297 300
303 295 293 297 302 305 308 299 281 210 217 239 245 241 237 237 253 250 222 226 252 271 284 272 264 267 279 287 277 246 247 272 284 278 245 260 282 297 291 277 284 296 302
290 300 314 310 302 300 307 299 274 212 228 254 264 256 250 245 253 252 221 212 237 252 253 281 291 304 291 281 284 239 226 246 280 276 236 250 278 308 301 285 287 298 299